Tiempo cada hora Aboyne

Hoy, 29 Octubre, Jueves

Tiempo Temperatura Precipitaciones Viento Presión Humedad
00:00 +3°C° 0 mm 2 mps 721 mmHg 94%
01:00 +3°C° 0.1 mm 3 mps 721 mmHg 93%
02:00 +3°C° 0.1 mm 3 mps 722 mmHg 92%
03:00 +4°C° 0.1 mm 3 mps 723 mmHg 91%
04:00 +3°C° 0 mm 3 mps 723 mmHg 91%
05:00 +3°C° 0 mm 3 mps 724 mmHg 91%
06:00 +3°C° 0 mm 2 mps 724 mmHg 92%
07:00 +4°C° 0 mm 2 mps 725 mmHg 91%
08:00 +4°C° 0 mm 2 mps 725 mmHg 90%
09:00 +5°C° 0 mm 2 mps 726 mmHg 90%
10:00 +5°C° 0 mm 2 mps 726 mmHg 86%
11:00 +5°C° 0 mm 3 mps 725 mmHg 82%
12:00 +7°C° 0 mm 3 mps 725 mmHg 78%
13:00 +7°C° 0.6 mm 3 mps 725 mmHg 84%
14:00 +6°C° 0.6 mm 4 mps 724 mmHg 90%
15:00 +5°C° 0.6 mm 4 mps 723 mmHg 95%
16:00 +6°C° 0.7 mm 4 mps 722 mmHg 96%
17:00 +6°C° 0.7 mm 4 mps 722 mmHg 97%
18:00 +7°C° 0.7 mm 4 mps 721 mmHg 98%
19:00 +8°C° 0.2 mm 3 mps 721 mmHg 98%
20:00 +8°C° 0.2 mm 3 mps 721 mmHg 98%
21:00 +8°C° 0.2 mm 3 mps 721 mmHg 98%
22:00 +9°C° 0 mm 3 mps 721 mmHg 97%
23:00 +10°C° 0 mm 4 mps 721 mmHg 96%

Mañana, 30 Octubre, Viernes

Tiempo Temperatura Precipitaciones Viento Presión Humedad
00:00 +11°C° 0 mm 4 mps 721 mmHg 96%
01:00 +10°C° 0.1 mm 4 mps 722 mmHg 95%
02:00 +10°C° 0.1 mm 4 mps 722 mmHg 95%
03:00 +10°C° 0.1 mm 4 mps 723 mmHg 94%
04:00 +10°C° 0 mm 4 mps 724 mmHg 92%
05:00 +8°C° 0 mm 4 mps 725 mmHg 90%
06:00 +8°C° 0 mm 4 mps 726 mmHg 89%
07:00 +9°C° 0 mm 3 mps 727 mmHg 88%
08:00 +9°C° 0 mm 3 mps 728 mmHg 87%
09:00 +8°C° 0 mm 3 mps 729 mmHg 86%
10:00 +9°C° 0 mm 3 mps 729 mmHg 81%
11:00 +9°C° 0 mm 3 mps 730 mmHg 76%
12:00 +8°C° 0 mm 4 mps 731 mmHg 72%
13:00 +9°C° 0 mm 3 mps 731 mmHg 72%
14:00 +8°C° 0 mm 3 mps 732 mmHg 72%
15:00 +8°C° 0 mm 2 mps 733 mmHg 72%
16:00 +7°C° 0 mm 2 mps 733 mmHg 76%
17:00 +6°C° 0 mm 2 mps 733 mmHg 79%
18:00 +5°C° 0 mm 1 mps 734 mmHg 82%
19:00 +5°C° 0 mm 1 mps 734 mmHg 83%
20:00 +5°C° 0 mm 1 mps 734 mmHg 84%
21:00 +5°C° 0 mm 1 mps 734 mmHg 84%
22:00 +5°C° 0 mm 1 mps 734 mmHg 84%
23:00 +5°C° 0 mm 1 mps 733 mmHg 83%

Pasado mañana, 31 Octubre, Sábado

Tiempo Temperatura Precipitaciones Viento Presión Humedad
00:00 +5°C° 0 mm 1 mps 733 mmHg 83%
01:00 +5°C° 0.3 mm 1 mps 732 mmHg 86%
02:00 +5°C° 0.3 mm 1 mps 731 mmHg 90%
03:00 +4°C° 0.3 mm 2 mps 730 mmHg 93%
04:00 +4°C° 0.9 mm 3 mps 728 mmHg 95%
05:00 +5°C° 0.9 mm 4 mps 726 mmHg 96%
06:00 +5°C° 0.9 mm 5 mps 724 mmHg 98%
07:00 +6°C° 0.8 mm 5 mps 723 mmHg 98%
08:00 +7°C° 0.8 mm 5 mps 722 mmHg 97%
09:00 +9°C° 0.8 mm 5 mps 721 mmHg 97%
10:00 +9°C° 1.5 mm 6 mps 720 mmHg 94%
11:00 +9°C° 1.5 mm 6 mps 720 mmHg 91%
12:00 +9°C° 1.5 mm 7 mps 719 mmHg 88%
13:00 +7°C° 0.1 mm 8 mps 719 mmHg 87%
14:00 +6°C° 0.1 mm 9 mps 718 mmHg 86%
15:00 +5°C° 0.1 mm 10 mps 718 mmHg 85%
16:00 +5°C° 0.1 mm 10 mps 718 mmHg 85%
17:00 +5°C° 0.1 mm 10 mps 719 mmHg 85%
18:00 +5°C° 0.1 mm 10 mps 719 mmHg 85%
19:00 +5°C° 0.1 mm 9 mps 720 mmHg 85%
20:00 +4°C° 0.1 mm 8 mps 721 mmHg 84%
21:00 +4°C° 0.1 mm 7 mps 722 mmHg 84%
22:00 +3°C° 0 mm 6 mps 722 mmHg 86%
23:00 +2°C° 0 mm 5 mps 723 mmHg 88%

1 Noviembre, Domingo

Tiempo Temperatura Precipitaciones Viento Presión Humedad
00:00 +3°C° 0 mm 4 mps 723 mmHg 91%
01:00 +3°C° 0 mm 3 mps 723 mmHg 91%
02:00 +2°C° 0 mm 3 mps 722 mmHg 92%
03:00 +3°C° 0 mm 2 mps 722 mmHg 93%
04:00 +3°C° 0 mm 2 mps 721 mmHg 92%
05:00 +3°C° 0 mm 2 mps 720 mmHg 91%
06:00 +3°C° 0 mm 2 mps 720 mmHg 90%
07:00 +3°C° 0.4 mm 3 mps 718 mmHg 91%
08:00 +3°C° 0.4 mm 5 mps 717 mmHg 93%
09:00 +3°C° 0.4 mm 6 mps 715 mmHg 94%
10:00 +4°C° 2.5 mm 6 mps 714 mmHg 95%
11:00 +5°C° 2.5 mm 6 mps 713 mmHg 95%
12:00 +5°C° 2.5 mm 6 mps 713 mmHg 96%
13:00 +5°C° 0.1 mm 6 mps 713 mmHg 91%
14:00 +5°C° 0.1 mm 6 mps 713 mmHg 85%
15:00 +5°C° 0.1 mm 7 mps 713 mmHg 80%
16:00 +4°C° 0 mm 6 mps 713 mmHg 83%
17:00 +3°C° 0 mm 5 mps 714 mmHg 86%
18:00 +2°C° 0 mm 5 mps 714 mmHg 89%
19:00 +3°C° 0 mm 4 mps 714 mmHg 90%
20:00 +3°C° 0 mm 4 mps 714 mmHg 91%
21:00 +3°C° 0 mm 4 mps 714 mmHg 91%
22:00 +3°C° 0 mm 3 mps 714 mmHg 92%
23:00 +3°C° 0 mm 3 mps 714 mmHg 92%

2 Noviembre, Lunes

Tiempo Temperatura Precipitaciones Viento Presión Humedad
00:00 +3°C° 0 mm 3 mps 714 mmHg 93%
01:00 +2°C° 0 mm 3 mps 714 mmHg 92%
02:00 +2°C° 0 mm 3 mps 715 mmHg 92%
03:00 +2°C° 0 mm 3 mps 715 mmHg 91%
04:00 +1°C° 0 mm 4 mps 715 mmHg 91%
05:00 +1°C° 0 mm 4 mps 715 mmHg 91%
06:00 0°C° 0 mm 4 mps 716 mmHg 91%
07:00 +1°C° 0 mm 4 mps 716 mmHg 91%
08:00 +1°C° 0 mm 5 mps 716 mmHg 90%
09:00 +2°C° 0 mm 5 mps 717 mmHg 89%
10:00 +3°C° 0 mm 6 mps 717 mmHg 85%
11:00 +3°C° 0 mm 6 mps 717 mmHg 80%
12:00 +4°C° 0 mm 7 mps 718 mmHg 76%
13:00 +3°C° 0 mm 7 mps 718 mmHg 75%
14:00 +3°C° 0 mm 6 mps 718 mmHg 75%
15:00 +3°C° 0 mm 6 mps 718 mmHg 74%
16:00 +2°C° 0.1 mm 6 mps 718 mmHg 79%
17:00 +1°C° 0.1 mm 6 mps 718 mmHg 84%
18:00 -1°C° 0.1 mm 6 mps 718 mmHg 90%
19:00 +1°C° 0.3 mm 6 mps 718 mmHg 90%
20:00 +2°C° 0.3 mm 6 mps 717 mmHg 90%
21:00 +3°C° 0.3 mm 7 mps 717 mmHg 90%
22:00 +3°C° 0.1 mm 6 mps 717 mmHg 90%
23:00 +3°C° 0.1 mm 6 mps 717 mmHg 90%

3 Noviembre, Martes

Tiempo Temperatura Precipitaciones Viento Presión Humedad
00:00 +3°C° 0.1 mm 5 mps 718 mmHg 91%
01:00 +3°C° 0.9 mm 5 mps 718 mmHg 92%
02:00 +3°C° 0.9 mm 5 mps 719 mmHg 93%
03:00 +3°C° 0.9 mm 6 mps 720 mmHg 94%
04:00 +3°C° 0.2 mm 6 mps 722 mmHg 92%
05:00 +2°C° 0.2 mm 6 mps 723 mmHg 91%
06:00 +2°C° 0.2 mm 7 mps 725 mmHg 89%
07:00 +2°C° 0 mm 6 mps 726 mmHg 88%
08:00 +2°C° 0 mm 6 mps 728 mmHg 87%
09:00 +2°C° 0 mm 5 mps 729 mmHg 85%
10:00 +2°C° 0.1 mm 5 mps 731 mmHg 85%
11:00 +3°C° 0.1 mm 5 mps 732 mmHg 85%
12:00 +3°C° 0.1 mm 5 mps 734 mmHg 85%
13:00 +3°C° 0 mm 5 mps 735 mmHg 83%
14:00 +3°C° 0 mm 5 mps 736 mmHg 82%
15:00 +4°C° 0 mm 4 mps 737 mmHg 80%
16:00 +3°C° 0 mm 4 mps 738 mmHg 82%
17:00 +2°C° 0 mm 3 mps 739 mmHg 85%
18:00 +1°C° 0 mm 3 mps 740 mmHg 88%
19:00 +1°C° 0 mm 3 mps 740 mmHg 88%
20:00 +1°C° 0 mm 3 mps 741 mmHg 88%
21:00 +1°C° 0 mm 3 mps 741 mmHg 88%
22:00 +1°C° 0 mm 3 mps 741 mmHg 88%
23:00 +2°C° 0 mm 2 mps 742 mmHg 89%
Mostrar más

Necesitamos Su Consentimiento

Meteoprog y nuestros Proveedores de Servicios pueden almacenar y acceder a sus datos personales como cookies, identificadores de dispositivo u otras tecnologías similares de su dispositivo y procesar dichos datos para personalizar contenido y anuncios, además de ofrecer funciones de redes sociales y analizar el tráfico.

  • Almacenar y/o acceder a información en su dispositivo

    Se puede almacenar o acceder a cookies, identificadores de dispositivo u otra información de su dispositivo para los fines anteriormente indicados.

  • Anuncios y contenido personalizados, medición de anuncios y contenido, percepciones del público, y desarrollo de productos

    Los anuncios y el contenido pueden personalizarse en base a su perfil. Se pueden añadir más datos para personalizar mejor los anuncios y contenidos. Se puede medir el rendimiento de los anuncios y contenidos. Se puede obtener la percepción sobre el público que ha visto los anuncios y contenidos. Dichos datos pueden usarse para desarrollar o mejorar la experiencia del usuario, sistemas y software.

Al hacer clic en ‘Estoy De Acuerdo’ usted permitirá el uso de las cookies, identificadores de dispositivo, balizas web u otras tecnologías similares indicadas. Su configuración puede cambiarse desde el navegador de su dispositivo.

Para ciertos fines, los intereses legítimos pueden ser considerados por encima del consentimiento. Puede leer más sobre ello en nuestra Política de Privacidad y Cookies.